QPF
0.00 0.00 0.00 0.00 0.00 0.00 0.00 0.00 0.00 0.00 0.00 0.00 0.00 0.00 0.00 0.00 0.00 0.00 0.00 0.00 0.00 0.00 0.00 0.00 0.00 0.00 0.00 0.00 0.00 0.00 0.00 0.00 0.00 0.00 0.00 0.00 0.00 0.00 0.00 0.00 0.00 0.00 0.00 0.00 0.00
0.00 0.00 0.00 0.00 0.00 0.00 0.00 0.00 0.00 0.00 0.00 0.00 0.00 0.00 0.00 0.00 0.00 0.00 0.00 0.00 0.00 0.00 0.00 0.00 0.00 0.00 0.00 0.00 0.00 0.00 0.00 0.00 0.00 0.00 0.00 0.00 0.00 0.00 0.00 0.00 0.00 0.00 0.00 0.00 0.00
0.00 0.00 0.00 0.00 0.00 0.00 0.00 0.00 0.00 0.00 0.00 0.00 0.00 0.00 0.00 0.00 0.00 0.00 0.00 0.00 0.00 0.00 0.00 0.00 0.00 0.00 0.00 0.00 0.00 0.00 0.00 0.00 0.00 0.00 0.00 0.00 0.00 0.00 0.00 0.00 0.00 0.00 0.00 0.00 0.00
0.00 0.00 0.00 0.00 0.00 0.00 0.00 0.00 0.00 0.00 0.00 0.00 0.00 0.00 0.00 0.00 0.00 0.00 0.00 0.00 0.00 0.00 0.00 0.00 0.00 0.00 0.00 0.00 0.00 0.00 0.00 0.00 0.00 0.00 0.00 0.00 0.00 0.00 0.00 0.00 0.00 0.00 0.00 0.00 0.00
0.00 0.00 0.00 0.00 0.00 0.00 0.00 0.00 0.00 0.00 0.00 0.00 0.00 0.00 0.00 0.00 0.00 0.00 0.00 0.00 0.00 0.00 0.00 0.00 0.00 0.00 0.00 0.00 0.00 0.00 0.00 0.00 0.00 0.00 0.00 0.00 0.00 0.00 0.00 0.00 0.00 0.00 0.00 0.00 0.00
0.00 0.00 0.00 0.00 0.00 0.00 0.00 0.00 0.00 0.00 0.00 0.00 0.01 0.00 0.01 0.00 0.00 0.00 0.00 0.00 0.00 0.00 0.00 0.00 0.00 0.00 0.00 0.00 0.00 0.00 0.00 0.00 0.00 0.00 0.00 0.00 0.00 0.00 0.00 0.00 0.00 0.00 0.00 0.00 0.00
0.01 0.00 0.00 0.00 0.00 0.00 0.00 0.00 0.00 0.00 0.00 0.00 0.03 0.01 0.01 0.00 0.00 0.00 0.00 0.00 0.00 0.00 0.00 0.00 0.00 0.00 0.00 0.00 0.00 0.00 0.00 0.00 0.00 0.00 0.00 0.00 0.00 0.00 0.00 0.00 0.00 0.00 0.00 0.00 0.00
0.02 0.01 0.00 0.00 0.00 0.00 0.00 0.00 0.00 0.00 0.00 0.00 0.05 0.02 0.00 0.00 0.01 0.00 0.00 0.00 0.00 0.00 0.00 0.00 0.00 0.00 0.00 0.00 0.00 0.00 0.00 0.00 0.00 0.00 0.00 0.00 0.00 0.00 0.00 0.00 0.00 0.00 0.00 0.00 0.00
0.01 0.01 0.00 0.00 0.00 0.00 0.00 0.00 0.00 0.00 0.00 0.01 0.05 0.04 0.00 0.02 0.01 0.00 0.00 0.00 0.00 0.00 0.00 0.00 0.00 0.00 0.00 0.00 0.03 0.04 0.00 0.00 0.00 0.00 0.00 0.00 0.00 0.00 0.00 0.00 0.00 0.00 0.00 0.00 0.00
0.00 0.00 0.00 0.00 0.00 0.00 0.00 0.00 0.00 0.00 0.00 0.01 0.02 0.10 0.03 0.01 0.01 0.02 0.02 0.00 0.00 0.00 0.01 0.02 0.00 0.00 0.03 0.01 0.02 0.03 0.01 0.00 0.00 0.00 0.00 0.00 0.00 0.00 0.00 0.00 0.00 0.00 0.00 0.00 0.00
0.01 0.00 0.00 0.00 0.00 0.00 0.00 0.00 0.00 0.00 0.00 0.00 0.02 0.02 0.02 0.00 0.01 0.04 0.05 0.03 0.01 0.00 0.01 0.07 0.02 0.00 0.00 0.02 0.00 0.00 0.00 0.00 0.00 0.00 0.00 0.00 0.00 0.00 0.00 0.00 0.00 0.00 0.00 0.00 0.00
0.01 0.00 0.00 0.00 0.00 0.00 0.00 0.00 0.00 0.00 0.00 0.00 0.02 0.01 0.00 0.00 0.00 0.01 0.07 0.04 0.01 0.00 0.00 0.04 0.02 0.00 0.00 0.01 0.04 0.03 0.00 0.00 0.00 0.00 0.00 0.00 0.00 0.00 0.00 0.00 0.00 0.00 0.00 0.00 0.00
0.01 0.01 0.00 0.00 0.00 0.00 0.00 0.00 0.01 0.01 0.00 0.00 0.02 0.02 0.02 0.00 0.00 0.00 0.05 0.04 0.02 0.01 0.00 0.00 0.00 0.00 0.00 0.00 0.03 0.08 0.03 0.00 0.00 0.00 0.01 0.00 0.01 0.00 0.00 0.00 0.00 0.01 0.01 0.02 0.03
0.00 0.00 0.00 0.02 0.01 0.00 0.00 0.01 0.04 0.01 0.00 0.00 0.01 0.02 0.02 0.01 0.00 0.01 0.06 0.03 0.03 0.02 0.01 0.01 0.00 0.00 0.00 0.00 0.01 0.04 0.03 0.02 0.02 0.01 0.06 0.07 0.14 0.01 0.00 0.00 0.00 0.00 0.00 0.01 0.02
0.00 0.00 0.02 0.00 0.00 0.00 0.00 0.01 0.04 0.01 0.00 0.00 0.00 0.01 0.01 0.03 0.00 0.03 0.04 0.03 0.03 0.04 0.05 0.02 0.00 0.01 0.01 0.00 0.02 0.04 0.02 0.05 0.04 0.06 0.09 0.10 0.16 0.06 0.00 0.00 0.00 0.00 0.00 0.00 0.00
0.00 0.00 0.01 0.00 0.02 0.02 0.01 0.04 0.05 0.01 0.00 0.01 0.02 0.02 0.01 0.02 0.00 0.07 0.07 0.05 0.06 0.05 0.06 0.01 0.00 0.01 0.02 0.00 0.01 0.04 0.04 0.06 0.11 0.13 0.16 0.06 0.08 0.09 0.06 0.01 0.00 0.00 0.00 0.00 0.00
0.01 0.00 0.00 0.00 0.01 0.03 0.05 0.27 0.18 0.01 0.02 0.08 0.04 0.02 0.01 0.01 0.00 0.05 0.08 0.10 0.20 0.09 0.13 0.06 0.03 0.00 0.04 0.07 0.06 0.05 0.07 0.13 0.20 0.24 0.14 0.00 0.05 0.10 0.01 0.03 0.07 0.04 0.02 0.01 0.00
0.00 0.00 0.00 0.00 0.00 0.03 0.14 0.29 0.06 0.01 0.01 0.14 0.08 0.04 0.02 0.01 0.01 0.00 0.02 0.10 0.24 0.03 0.03 0.04 0.07 0.03 0.08 0.04 0.07 0.02 0.04 0.05 0.03 0.03 0.01 0.00 0.03 0.00 0.00 0.00 0.01 0.04 0.10 0.11 0.07
0.00 0.00 0.00 0.00 0.00 0.02 0.04 0.06 0.03 0.00 0.01 0.09 0.09 0.09 0.06 0.01 0.00 0.00 0.00 0.01 0.08 0.04 0.01 0.02 0.01 0.02 0.04 0.01 0.01 0.03 0.03 0.01 0.01 0.00 0.00 0.00 0.00 0.00 0.00 0.00 0.00 0.00 0.01 0.02 0.02
0.00 0.00 0.00 0.00 0.00 0.00 0.00 0.01 0.01 0.00 0.02 0.05 0.05 0.13 0.09 0.03 0.01 0.01 0.01 0.01 0.01 0.02 0.01 0.02 0.04 0.04 0.01 0.02 0.03 0.00 0.01 0.02 0.02 0.01 0.00 0.00 0.00 0.00 0.00 0.00 0.00 0.00 0.00 0.00 0.00
0.00 0.00 0.00 0.00 0.00 0.00 0.00 0.00 0.00 0.00 0.01 0.01 0.03 0.14 0.14 0.09 0.01 0.01 0.00 0.00 0.00 0.01 0.02 0.01 0.03 0.08 0.06 0.07 0.03 0.00 0.03 0.00 0.00 0.00 0.00 0.00 0.00 0.00 0.00 0.00 0.00 0.00 0.00 0.00 0.00
0.00 0.00 0.00 0.00 0.00 0.00 0.00 0.00 0.00 0.00 0.00 0.01 0.01 0.07 0.19 0.19 0.09 0.02 0.02 0.01 0.00 0.00 0.00 0.01 0.03 0.05 0.06 0.02 0.00 0.00 0.00 0.00 0.00 0.00 0.00 0.00 0.00 0.00 0.00 0.00 0.00 0.00 0.00 0.00 0.00
0.00 0.00 0.00 0.00 0.00 0.00 0.00 0.00 0.00 0.00 0.00 0.02 0.03 0.02 0.08 0.11 0.16 0.04 0.01 0.02 0.00 0.00 0.01 0.00 0.03 0.07 0.08 0.05 0.00 0.00 0.00 0.00 0.00 0.00 0.00 0.00 0.00 0.00 0.00 0.00 0.00 0.00 0.00 0.00 0.00
0.00 0.00 0.00 0.00 0.00 0.00 0.00 0.00 0.00 0.00 0.00 0.00 0.04 0.02 0.02 0.02 0.09 0.05 0.02 0.03 0.02 0.01 0.03 0.00 0.00 0.01 0.02 0.02 0.00 0.00 0.00 0.00 0.00 0.00 0.00 0.00 0.00 0.00 0.00 0.00 0.00 0.00 0.00 0.00 0.00
0.00 0.00 0.00 0.00 0.00 0.00 0.00 0.00 0.00 0.00 0.00 0.00 0.00 0.00 0.00 0.00 0.00 0.04 0.04 0.03 0.03 0.01 0.05 0.03 0.00 0.00 0.00 0.00 0.00 0.00 0.00 0.00 0.00 0.00 0.00 0.00 0.00 0.00 0.00 0.00 0.00 0.00 0.00 0.00 0.00
0.00 0.00 0.00 0.00 0.00 0.00 0.00 0.00 0.00 0.00 0.00 0.00 0.00 0.00 0.00 0.00 0.00 0.00 0.00 0.02 0.04 0.02 0.04 0.09 0.01 0.00 0.00 0.00 0.00 0.00 0.00 0.00 0.00 0.00 0.00 0.00 0.00 0.00 0.00 0.00 0.00 0.00 0.00 0.00 0.00
0.00 0.00 0.00 0.00 0.00 0.00 0.00 0.00 0.00 0.00 0.00 0.00 0.00 0.00 0.00 0.00 0.00 0.00 0.00 0.00 0.01 0.01 0.03 0.05 0.01 0.00 0.00 0.00 0.00 0.00 0.00 0.00 0.00 0.00 0.00 0.00 0.00 0.00 0.00 0.00 0.00 0.00 0.00 0.00 0.00
MSLP
1020.16 1019.99 1019.78 1019.57 1019.49 1019.36 1019.51 1019.69 1019.40 1019.19 1019.07 1019.08 1018.95 1018.76 1018.62 1018.52 1018.09 1017.66 1017.72 1017.58 1017.62 1017.46 1017.20 1017.20 1017.12 1016.78 1016.67 1016.76 1016.74 1017.11 1018.01 1017.88 1016.86 1016.46 1015.43 1014.97 1015.01 1015.35 1015.69 1016.02 1016.50 1016.54 1016.93 1016.96 1018.22
1020.02 1020.01 1019.97 1019.80 1019.60 1019.49 1019.38 1019.39 1019.47 1019.40 1019.03 1018.84 1018.71 1018.73 1018.75 1018.67 1018.41 1017.90 1017.42 1017.33 1017.52 1017.45 1017.35 1017.54 1017.29 1017.20 1017.03 1016.68 1017.02 1017.44 1018.28 1017.65 1016.62 1016.40 1015.97 1015.59 1015.16 1015.36 1015.83 1016.35 1016.74 1016.86 1017.02 1017.39 1018.37
1019.91 1019.89 1019.88 1019.85 1019.69 1019.51 1019.27 1019.22 1019.38 1019.33 1019.21 1018.78 1018.90 1018.84 1018.90 1018.75 1018.65 1017.59 1017.20 1017.39 1017.53 1017.41 1017.62 1017.61 1017.51 1017.26 1017.11 1017.09 1017.26 1017.68 1017.95 1017.52 1016.76 1016.50 1016.31 1015.78 1015.53 1015.26 1015.78 1016.57 1016.39 1016.61 1017.39 1017.88 1018.62
1019.72 1019.76 1019.75 1019.83 1019.78 1019.60 1019.43 1019.28 1019.25 1019.27 1019.05 1018.77 1018.88 1018.97 1019.08 1019.14 1018.72 1017.70 1017.50 1017.66 1017.61 1017.25 1017.64 1017.68 1017.80 1017.57 1017.39 1017.53 1017.17 1017.53 1017.52 1017.55 1016.96 1016.60 1016.41 1015.97 1015.63 1015.52 1015.61 1015.61 1015.48 1016.21 1016.52 1017.70 1018.49
1019.53 1019.54 1019.62 1019.65 1019.72 1019.70 1019.59 1019.41 1019.21 1019.12 1019.12 1018.98 1018.81 1018.93 1018.90 1018.96 1018.26 1017.45 1017.73 1017.72 1017.49 1017.28 1017.57 1017.56 1017.57 1017.40 1017.34 1017.19 1017.30 1017.49 1017.57 1017.52 1017.05 1016.83 1016.45 1016.11 1015.88 1015.68 1015.68 1015.73 1015.93 1016.70 1017.27 1017.82 1018.52
1019.27 1019.38 1019.43 1019.45 1019.57 1019.67 1019.71 1019.54 1019.32 1019.19 1019.09 1019.00 1019.01 1019.12 1019.32 1018.93 1017.88 1017.75 1017.80 1017.87 1017.71 1017.42 1017.44 1017.53 1017.57 1017.62 1017.60 1017.76 1017.64 1017.42 1017.61 1017.43 1017.00 1016.83 1016.55 1016.37 1016.05 1015.95 1015.90 1016.15 1016.60 1017.25 1017.57 1017.91 1018.41
1019.08 1019.18 1019.28 1019.37 1019.44 1019.61 1019.67 1019.60 1019.38 1019.21 1019.19 1019.08 1019.03 1019.09 1019.19 1018.48 1017.98 1017.95 1018.01 1018.08 1017.96 1017.80 1017.75 1018.00 1017.91 1018.18 1018.15 1018.20 1018.07 1017.86 1017.74 1017.42 1017.27 1017.14 1016.89 1016.50 1016.46 1016.24 1016.20 1016.60 1017.20 1017.80 1018.00 1018.17 1018.30
1018.82 1019.01 1019.08 1019.24 1019.31 1019.48 1019.61 1019.60 1019.44 1019.25 1019.27 1019.16 1019.13 1019.28 1018.85 1018.36 1018.26 1018.52 1018.33 1018.33 1018.11 1017.78 1017.82 1017.93 1017.86 1018.52 1018.68 1018.79 1018.40 1018.16 1018.08 1018.38 1017.93 1017.48 1017.05 1016.87 1016.75 1016.25 1016.53 1016.82 1017.60 1017.96 1018.31 1018.47 1018.39
1018.61 1018.63 1018.78 1019.00 1019.20 1019.29 1019.45 1019.51 1019.47 1019.42 1019.31 1019.19 1019.40 1019.26 1018.84 1018.51 1018.60 1018.54 1018.58 1018.50 1018.47 1018.32 1018.17 1018.03 1018.10 1018.95 1019.14 1018.95 1018.95 1018.45 1018.23 1018.54 1018.47 1018.09 1017.67 1017.61 1017.20 1016.84 1016.89 1017.30 1017.88 1018.20 1018.33 1018.39 1018.49
1018.38 1018.46 1018.56 1018.79 1019.02 1019.12 1019.20 1019.26 1019.30 1019.28 1019.34 1019.25 1019.46 1019.66 1019.11 1018.50 1018.18 1018.44 1018.41 1018.33 1018.52 1018.59 1018.53 1018.45 1018.70 1019.13 1018.92 1018.69 1017.82 1018.32 1018.51 1018.56 1018.78 1018.96 1018.26 1018.06 1017.87 1017.48 1017.40 1017.63 1018.00 1018.46 1018.51 1018.38 1018.35
1018.14 1018.21 1018.37 1018.61 1018.84 1019.05 1019.33 1019.37 1019.76 1019.76 1019.34 1019.09 1019.10 1018.91 1018.61 1018.69 1018.32 1018.31 1018.47 1018.61 1018.74 1018.79 1018.75 1018.67 1018.89 1018.40 1018.45 1018.25 1018.11 1017.92 1018.25 1018.71 1019.29 1019.52 1019.16 1018.97 1018.73 1018.08 1017.70 1017.74 1018.15 1018.57 1018.51 1018.42 1018.08
1017.88 1017.94 1018.17 1018.47 1018.66 1018.89 1019.46 1019.35 1018.69 1018.66 1019.09 1019.05 1018.83 1018.71 1018.50 1018.61 1018.75 1018.54 1018.71 1018.74 1018.59 1018.68 1018.71 1018.73 1018.06 1017.99 1018.23 1018.34 1018.30 1018.18 1018.24 1018.67 1019.65 1019.85 1019.38 1019.37 1018.92 1018.38 1017.75 1017.71 1017.86 1018.17 1018.21 1018.24 1018.38
1017.60 1017.79 1018.04 1018.31 1018.59 1018.94 1019.24 1018.93 1018.41 1018.49 1018.92 1019.11 1018.81 1018.47 1018.54 1018.81 1018.48 1018.27 1018.39 1018.41 1018.18 1018.55 1018.74 1018.35 1018.13 1018.14 1018.24 1018.51 1018.54 1018.32 1018.23 1018.65 1019.15 1020.15 1020.18 1019.82 1019.43 1018.58 1018.32 1018.02 1017.86 1018.31 1018.22 1018.34 1018.88
1017.55 1017.68 1017.89 1018.11 1018.96 1018.92 1019.11 1018.53 1018.67 1018.69 1019.29 1019.23 1018.79 1018.28 1018.51 1018.82 1018.49 1017.81 1018.00 1018.35 1018.33 1018.33 1018.49 1018.29 1018.09 1018.12 1018.21 1018.49 1018.52 1018.76 1018.67 1019.13 1019.69 1020.19 1020.62 1020.50 1020.38 1019.55 1019.30 1018.72 1019.37 1018.98 1019.05 1019.34 1019.65
1017.39 1017.50 1017.73 1018.10 1018.49 1019.00 1019.30 1018.81 1018.73 1018.90 1019.75 1018.96 1018.97 1018.69 1018.42 1018.88 1018.53 1018.10 1018.03 1017.99 1018.23 1018.17 1018.53 1018.25 1017.96 1018.13 1018.12 1017.81 1018.39 1019.04 1019.16 1019.80 1020.38 1020.95 1021.07 1021.17 1021.17 1019.54 1019.55 1019.51 1019.79 1019.61 1020.30 1020.29 1020.46
1017.40 1017.63 1017.90 1018.32 1018.74 1019.29 1019.09 1018.80 1019.20 1020.50 1020.25 1019.33 1018.92 1018.70 1018.77 1018.95 1018.48 1018.34 1018.16 1018.29 1018.70 1018.55 1018.76 1018.71 1018.46 1018.35 1018.11 1018.12 1018.57 1019.49 1020.09 1020.78 1021.32 1021.72 1021.89 1021.09 1021.13 1020.08 1019.45 1019.57 1020.09 1020.26 1021.20 1021.60 1021.17
1017.61 1017.93 1018.20 1018.54 1019.27 1019.15 1019.07 1019.85 1020.59 1020.88 1020.61 1020.07 1019.32 1018.79 1018.70 1018.81 1018.85 1018.53 1018.35 1018.76 1019.19 1019.61 1019.56 1019.37 1019.12 1018.81 1018.51 1018.83 1019.36 1019.54 1020.36 1021.50 1022.36 1022.47 1021.76 1021.35 1021.47 1020.12 1019.43 1018.90 1019.71 1021.19 1021.61 1022.42 1021.43
1017.93 1018.01 1018.82 1019.19 1019.17 1019.23 1020.00 1021.05 1020.92 1021.23 1021.11 1020.37 1019.82 1019.10 1018.77 1018.67 1018.65 1018.29 1018.50 1019.36 1019.88 1019.52 1019.51 1019.46 1020.08 1019.25 1018.93 1018.61 1018.60 1019.59 1020.03 1020.64 1021.32 1021.91 1022.00 1021.71 1020.96 1019.73 1019.43 1019.09 1019.24 1020.32 1021.80 1023.00 1022.73
1018.04 1018.83 1019.18 1019.33 1019.18 1019.23 1020.21 1021.08 1021.58 1021.55 1021.37 1020.69 1020.09 1019.39 1019.12 1018.77 1018.70 1018.75 1018.82 1019.20 1019.63 1019.52 1019.41 1019.74 1019.99 1019.66 1019.54 1018.84 1018.83 1019.65 1020.18 1020.54 1021.12 1022.01 1021.78 1021.75 1021.05 1019.78 1019.83 1019.72 1019.91 1020.99 1021.98 1023.04 1023.67
1018.80 1019.39 1019.78 1019.31 1019.11 1019.60 1020.73 1021.72 1021.84 1021.57 1021.25 1020.74 1020.20 1019.65 1019.20 1019.03 1019.33 1019.25 1019.45 1019.34 1019.58 1019.48 1019.64 1020.16 1020.37 1020.43 1019.79 1019.27 1019.24 1019.34 1020.00 1021.03 1021.57 1022.03 1022.04 1021.70 1020.94 1019.87 1020.35 1020.51 1020.83 1021.67 1022.39 1023.47 1024.41
1019.22 1019.89 1019.78 1019.45 1019.41 1020.70 1022.11 1022.36 1021.85 1021.23 1021.04 1020.80 1020.42 1019.85 1019.53 1019.08 1019.28 1019.53 1019.71 1020.07 1019.74 1019.76 1019.89 1020.01 1020.58 1021.40 1020.74 1020.13 1019.59 1019.71 1019.86 1020.16 1020.47 1021.06 1021.16 1021.29 1020.61 1019.93 1020.33 1020.95 1021.30 1021.99 1023.15 1023.68 1024.35
1019.88 1020.86 1020.00 1019.53 1021.04 1022.77 1023.19 1022.77 1022.22 1021.38 1020.92 1020.83 1020.55 1020.22 1020.01 1019.69 1019.78 1020.07 1020.05 1020.13 1020.18 1019.82 1020.14 1020.42 1021.20 1021.49 1021.29 1020.71 1019.82 1019.53 1019.33 1019.31 1019.76 1020.79 1020.89 1020.70 1020.75 1020.26 1020.41 1021.34 1022.14 1023.26 1023.97 1024.52 1025.17
1020.90 1021.26 1020.49 1020.34 1022.51 1023.86 1023.68 1022.93 1022.22 1021.54 1021.12 1021.03 1020.83 1020.53 1020.29 1020.10 1020.34 1020.73 1020.69 1020.87 1020.56 1020.38 1020.31 1020.47 1021.33 1021.65 1021.53 1021.25 1020.21 1019.95 1019.25 1019.25 1019.49 1019.99 1020.70 1020.99 1021.42 1021.12 1021.32 1022.24 1023.37 1023.87 1024.69 1025.37 1026.07
1021.66 1022.60 1022.33 1022.59 1023.66 1023.87 1024.33 1023.76 1022.81 1021.89 1021.69 1021.38 1021.30 1020.84 1020.69 1020.73 1020.66 1020.83 1020.90 1021.19 1020.92 1020.87 1020.82 1020.74 1021.56 1021.55 1021.07 1020.37 1019.64 1020.01 1019.57 1019.44 1019.46 1020.38 1020.79 1020.84 1021.76 1022.43 1022.85 1023.40 1024.55 1025.02 1025.21 1025.94 1026.66
1022.37 1023.97 1024.09 1024.43 1024.76 1024.55 1024.15 1023.97 1023.49 1022.94 1022.20 1021.78 1021.65 1021.47 1021.17 1021.38 1021.50 1021.17 1021.24 1021.43 1021.51 1021.51 1021.38 1021.47 1021.73 1021.83 1021.72 1021.05 1020.04 1019.51 1019.44 1019.72 1019.97 1020.21 1020.73 1021.51 1021.91 1022.50 1023.62 1024.26 1025.04 1025.42 1025.83 1026.40 1027.00
1022.38 1023.58 1024.40 1024.50 1024.80 1024.62 1024.43 1024.29 1023.79 1023.67 1023.15 1022.78 1022.70 1022.29 1021.73 1022.40 1022.69 1022.36 1022.16 1021.84 1021.79 1022.06 1022.04 1022.19 1022.48 1022.45 1022.33 1021.55 1020.75 1020.27 1019.95 1019.80 1020.36 1020.76 1021.13 1021.52 1022.66 1023.05 1024.15 1024.68 1025.45 1025.87 1026.26 1027.17 1027.66
1022.03 1022.17 1022.49 1024.60 1024.89 1024.80 1024.77 1024.38 1024.01 1023.61 1023.88 1023.64 1023.34 1023.09 1023.10 1023.56 1023.34 1023.04 1022.89 1022.82 1022.66 1022.52 1022.86 1022.95 1023.27 1023.63 1023.64 1022.77 1021.69 1021.41 1020.29 1020.10 1020.34 1020.49 1021.14 1021.76 1022.60 1023.78 1024.73 1025.36 1026.05 1026.57 1027.14 1027.81 1028.29
Thickness
5511 5515 5520 5527 5533 5539 5543 5547 5557 5564 5570 5575 5581 5589 5596 5603 5613 5623 5628 5635 5637 5644 5650 5656 5657 5661 5668 5669 5677 5677 5653 5653 5679 5683 5698 5712 5714 5721 5722 5716 5718 5723 5721 5726 5718
5506 5508 5512 5517 5524 5530 5536 5543 5548 5554 5564 5571 5577 5583 5589 5596 5605 5614 5627 5631 5634 5639 5644 5647 5651 5655 5656 5664 5666 5660 5646 5661 5685 5689 5692 5702 5713 5713 5713 5712 5711 5714 5721 5723 5716
5500 5502 5506 5509 5515 5522 5529 5536 5542 5548 5553 5562 5568 5575 5581 5588 5596 5611 5621 5626 5629 5635 5637 5642 5647 5653 5653 5659 5660 5656 5653 5669 5680 5687 5690 5699 5705 5715 5706 5704 5712 5713 5713 5716 5712
5493 5495 5498 5502 5506 5512 5519 5526 5534 5540 5548 5556 5560 5567 5572 5578 5586 5604 5612 5617 5622 5631 5633 5636 5638 5642 5647 5646 5658 5654 5664 5666 5675 5685 5686 5695 5706 5708 5713 5718 5725 5722 5725 5716 5711
5482 5486 5489 5493 5497 5502 5508 5515 5524 5533 5539 5546 5552 5560 5568 5573 5583 5599 5604 5609 5618 5626 5627 5633 5636 5640 5642 5651 5653 5651 5657 5664 5673 5673 5682 5690 5696 5703 5709 5715 5718 5715 5716 5713 5709
5469 5473 5477 5482 5487 5492 5497 5504 5513 5521 5529 5537 5542 5548 5555 5563 5578 5587 5596 5603 5610 5619 5623 5628 5632 5636 5639 5643 5648 5650 5653 5659 5669 5673 5678 5680 5692 5700 5708 5708 5708 5706 5708 5710 5708
5454 5458 5463 5468 5474 5480 5486 5493 5502 5510 5517 5526 5533 5541 5546 5559 5570 5577 5586 5594 5600 5609 5613 5617 5624 5626 5631 5633 5636 5641 5648 5657 5662 5661 5670 5677 5678 5687 5700 5700 5699 5697 5700 5703 5706
5437 5441 5447 5454 5461 5466 5474 5482 5490 5498 5507 5515 5522 5530 5541 5551 5559 5564 5574 5583 5592 5601 5607 5612 5618 5614 5619 5623 5630 5632 5640 5630 5648 5654 5664 5670 5659 5691 5691 5696 5692 5691 5691 5694 5700
5420 5426 5431 5438 5446 5454 5461 5470 5479 5486 5495 5504 5512 5523 5535 5543 5551 5556 5562 5571 5580 5589 5597 5605 5608 5603 5608 5614 5615 5616 5625 5624 5639 5645 5649 5656 5661 5676 5684 5685 5684 5684 5687 5691 5694
5412 5414 5418 5423 5431 5442 5451 5459 5468 5477 5484 5494 5501 5508 5525 5538 5545 5549 5556 5564 5569 5577 5585 5590 5592 5592 5600 5609 5619 5610 5618 5626 5629 5632 5642 5645 5655 5663 5672 5678 5678 5676 5679 5686 5690
5408 5410 5412 5413 5418 5426 5437 5446 5454 5463 5477 5483 5497 5509 5518 5523 5533 5541 5547 5553 5559 5568 5573 5579 5585 5594 5598 5608 5611 5620 5624 5627 5619 5625 5632 5628 5634 5652 5662 5672 5670 5670 5674 5679 5688
5406 5408 5409 5409 5411 5416 5422 5433 5448 5461 5463 5476 5488 5499 5508 5513 5519 5529 5535 5544 5553 5561 5567 5571 5584 5595 5596 5598 5602 5610 5618 5616 5611 5617 5628 5623 5633 5642 5654 5664 5665 5668 5671 5676 5679
5406 5406 5406 5406 5407 5409 5412 5423 5439 5448 5453 5467 5479 5491 5499 5504 5514 5520 5530 5538 5549 5552 5557 5569 5580 5587 5589 5588 5593 5600 5610 5613 5619 5609 5613 5620 5626 5632 5646 5653 5661 5660 5665 5668 5668
5404 5404 5404 5404 5402 5406 5409 5420 5427 5436 5435 5445 5470 5483 5489 5494 5506 5522 5525 5531 5538 5549 5553 5562 5572 5577 5582 5583 5592 5589 5600 5604 5602 5608 5604 5606 5600 5617 5624 5635 5633 5641 5644 5648 5652
5403 5404 5403 5404 5404 5404 5407 5414 5422 5425 5403 5447 5456 5470 5480 5486 5501 5510 5517 5526 5534 5542 5547 5557 5564 5569 5575 5588 5590 5586 5591 5593 5592 5591 5590 5589 5591 5609 5614 5619 5622 5629 5627 5633 5638
5402 5403 5403 5403 5403 5402 5406 5413 5417 5399 5383 5441 5453 5465 5472 5478 5495 5499 5509 5516 5518 5530 5533 5544 5554 5562 5573 5579 5581 5576 5577 5573 5571 5574 5575 5584 5588 5597 5609 5612 5614 5616 5614 5616 5624
5402 5402 5402 5402 5399 5404 5407 5406 5410 5372 5406 5431 5443 5457 5470 5472 5482 5494 5504 5509 5512 5515 5518 5528 5539 5551 5561 5562 5563 5569 5571 5560 5559 5561 5575 5574 5576 5591 5604 5614 5613 5604 5602 5601 5616
5403 5405 5400 5398 5400 5402 5402 5395 5409 5369 5388 5418 5429 5446 5458 5467 5475 5493 5496 5490 5484 5505 5517 5528 5527 5537 5548 5558 5567 5565 5565 5564 5562 5563 5560 5565 5570 5588 5597 5606 5612 5606 5591 5587 5595
5406 5402 5400 5400 5403 5405 5399 5397 5400 5386 5406 5416 5427 5442 5450 5460 5474 5481 5492 5495 5490 5496 5516 5515 5524 5525 5535 5552 5560 5554 5556 5558 5554 5519 5549 5557 5572 5589 5589 5591 5595 5591 5587 5582 5580
5405 5401 5398 5403 5405 5404 5387 5397 5393 5405 5405 5415 5428 5432 5449 5457 5460 5473 5477 5483 5487 5499 5504 5500 5516 5511 5530 5543 5545 5552 5553 5537 5533 5538 5531 5553 5565 5577 5575 5579 5584 5581 5581 5575 5565
5404 5393 5401 5404 5405 5390 5367 5390 5401 5411 5411 5419 5421 5429 5439 5458 5463 5466 5471 5468 5480 5490 5498 5501 5502 5501 5513 5521 5540 5540 5532 5547 5549 5543 5547 5547 5562 5573 5572 5572 5576 5576 5567 5562 5557
5398 5383 5402 5406 5381 5355 5367 5384 5400 5413 5416 5416 5421 5428 5436 5445 5451 5458 5466 5469 5471 5488 5494 5495 5492 5499 5503 5514 5531 5537 5547 5551 5548 5544 5540 5550 5556 5562 5566 5561 5556 5552 5548 5544 5541
5388 5388 5401 5403 5362 5372 5367 5392 5403 5410 5416 5414 5419 5425 5429 5440 5446 5440 5451 5454 5468 5480 5488 5493 5482 5495 5500 5507 5521 5527 5544 5545 5543 5540 5531 5536 5539 5548 5546 5544 5537 5536 5533 5529 5527
5388 5379 5382 5383 5372 5374 5358 5378 5394 5409 5411 5414 5410 5422 5428 5433 5434 5445 5451 5447 5458 5473 5478 5489 5465 5485 5512 5519 5520 5520 5534 5537 5542 5526 5530 5537 5530 5534 5528 5526 5520 5520 5521 5517 5513
5378 5365 5365 5368 5366 5372 5385 5386 5380 5382 5403 5409 5414 5415 5428 5427 5427 5438 5444 5448 5451 5457 5466 5478 5460 5478 5482 5489 5514 5530 5531 5527 5532 5535 5534 5531 5534 5530 5520 5516 5510 5508 5508 5507 5505
5383 5377 5368 5352 5372 5391 5374 5370 5383 5377 5396 5406 5403 5411 5419 5413 5417 5417 5429 5444 5454 5451 5456 5459 5469 5468 5471 5482 5504 5512 5514 5520 5520 5514 5516 5522 5516 5512 5503 5503 5501 5500 5499 5494 5490
5391 5395 5396 5379 5368 5371 5373 5375 5396 5399 5395 5395 5403 5409 5410 5406 5413 5422 5427 5432 5439 5448 5452 5458 5454 5443 5449 5464 5489 5488 5497 5505 5512 5518 5516 5516 5519 5496 5492 5492 5487 5486 5486 5482 5479